Skip Page Navigation
NASA JPL Caltech
NASA Logo - Jet Propulsion Laboratory + View the NASA Portal
+ Center for Near-Earth Object Studies
JPL Home Earth Solar System Stars & Galaxies Technology
JPL Solar System Dynamics
BODIES ORBITS EPHEMERIDES TOOLS PHYSICAL DATA DISCOVERY FAQ SITE MAP
JPL Small-Body Database Browser
Search: [ help ]  
136111 (2003 FC79)
Classification: Main-belt Asteroid          SPK-ID: 2136111
Ephemeris | Orbit Diagram | Orbital Elements | Mission Design | Physical Parameters | Discovery Circumstances | Close-Approach Data ]

[ show orbit diagram ]
Orbital Elements at Epoch 2459000.5 (2020-May-31.0) TDB
Reference: JPL 19 (heliocentric ecliptic J2000)
 Element Value Uncertainty (1-sigma)   Units 
e .08195306488859905 5.2618e-08  
a 2.690112975042671 1.5935e-08 au
q 2.469649971841337 1.4593e-07 au
i 5.844638869556785 6.5768e-06 deg
node 349.1383438313495 4.6289e-05 deg
peri 129.2659609161976 6.0783e-05 deg
M 26.21618248703542 3.7119e-05 deg
tp 2458883.139714772066
(2020-Feb-03.63971477)
0.00016616 TDB
period 1611.588670583522
4.41
1.4319e-05
3.92e-08
d
yr
n .2233820617947455 1.9848e-09 deg/d
Q 2.910575978244005 1.724e-08 au
  Orbit Determination Parameters
   # obs. used (total)      568  
   data-arc span      9533 days (26.10 yr)  
   first obs. used      1994-03-14  
   last obs. used      2020-04-19  
   planetary ephem.      DE431  
   SB-pert. ephem.      SB431-N16  
   condition code      0  
   norm. resid. RMS      .54488  
   source      ORB  
   producer      Otto Matic  
   solution date      2020-May-20 22:36:28  

Additional Information
 Earth MOID = 1.4904 au 
 Jupiter MOID = 2.14171 au 
 T_jup = 3.360 
[ show covariance matrix ]

Ephemeris | Orbit Diagram | Orbital Elements | Mission Design | Physical Parameters | Discovery Circumstances | Close-Approach Data ]

Physical Parameter Table
Parameter Symbol Value Units Sigma Reference Notes
absolute magnitude H 15.6   n/a MPO453845  

136111 (2003 FC79)          Discovered 2003-Mar-27 by Spacewatch at Kitt Peak
Reference: 20060907/Numbers.arcLast Updated: 2006-09-10

[ show close-approach data ]
Ephemeris | Orbit Diagram | Orbital Elements | Mission Design | Physical Parameters | Discovery Circumstances | Close-Approach Data ]
ABOUT SSD CREDITS/AWARDS PRIVACY/COPYRIGHT GLOSSARY LINKS
FirstGov 2020-Sep-29 18:00 UT
(server date/time)  
NASA Home Page
Site Manager:   Ryan S. Park
Webmaster  Alan B. Chamberlin